JBU908 TIST-TJSJ

Flight info

Callsign JBU908
Flight time 0h 20m
Altitude 12000
Route STT RTE2 SJU
Aircraft A320/M-SDE3FGHIRWY/LB1

Departure

Time 2026-04-22 16:06
Airport Cyril E. King Airport (TIST)

Arrival

Time 2026-04-22 16:27
Airport Luis Munoz Marin International Airport (TJSJ)
Time Latitude Longitude Altitude Speed Heading
2026-04-22 15:55 18.33561 -64.97204 27 ft 0 kts 178°
2026-04-22 15:56 18.33567 -64.97204 27 ft 4 kts 179°
2026-04-22 15:56 18.33593 -64.97204 27 ft 4 kts 183°
2026-04-22 15:56 18.33620 -64.97201 27 ft 4 kts 192°
2026-04-22 15:57 18.33644 -64.97192 23 ft 4 kts 220°
2026-04-22 15:57 18.33655 -64.97177 25 ft 1 kts 268°
2026-04-22 15:57 18.33655 -64.97173 27 ft 0 kts 268°
2026-04-22 16:01 18.33655 -64.97174 27 ft 1 kts 268°
2026-04-22 16:02 18.33651 -64.97267 27 ft 19 kts 268°
2026-04-22 16:02 18.33641 -64.97398 28 ft 15 kts 259°
2026-04-22 16:02 18.33621 -64.97518 27 ft 18 kts 261°
2026-04-22 16:02 18.33606 -64.97650 27 ft 19 kts 266°
2026-04-22 16:03 18.33600 -64.97798 28 ft 21 kts 268°
2026-04-22 16:03 18.33595 -64.97964 27 ft 24 kts 268°
2026-04-22 16:03 18.33588 -64.98123 27 ft 23 kts 267°
2026-04-22 16:03 18.33582 -64.98271 27 ft 18 kts 267°
2026-04-22 16:04 18.33621 -64.98327 28 ft 3 kts 355°
2026-04-22 16:04 18.33628 -64.98328 28 ft 2 kts 355°
2026-04-22 16:04 18.33652 -64.98330 27 ft 5 kts 355°
2026-04-22 16:04 18.33688 -64.98309 27 ft 8 kts 78°
2026-04-22 16:05 18.33689 -64.98296 27 ft 0 kts 86°
2026-04-22 16:05 18.33689 -64.98295 27 ft 0 kts 86°
2026-04-22 16:05 18.33696 -64.98186 27 ft 55 kts 86°
2026-04-22 16:05 18.33725 -64.97455 29 ft 139 kts 87°
2026-04-22 16:06 18.33757 -64.96470 246 ft 171 kts 87°
2026-04-22 16:06 18.33702 -64.95321 994 ft 176 kts 100°
2026-04-22 16:06 18.33344 -64.94392 1675 ft 178 kts 122°
2026-04-22 16:06 18.32404 -64.93524 2101 ft 194 kts 152°
2026-04-22 16:07 18.30996 -64.93282 2267 ft 221 kts 187°
2026-04-22 16:07 18.29629 -64.93951 2582 ft 248 kts 223°
2026-04-22 16:07 18.28524 -64.95444 3133 ft 267 kts 235°
2026-04-22 16:07 18.27468 -64.97092 3991 ft 274 kts 236°
2026-04-22 16:08 18.26420 -64.98786 4943 ft 278 kts 240°
2026-04-22 16:08 18.25840 -65.00713 5841 ft 282 kts 267°
2026-04-22 16:08 18.26021 -65.02774 6728 ft 285 kts 280°
2026-04-22 16:08 18.26344 -65.04867 7617 ft 288 kts 280°
2026-04-22 16:09 18.26664 -65.06922 8514 ft 290 kts 280°
2026-04-22 16:09 18.26990 -65.09029 9383 ft 293 kts 281°
2026-04-22 16:09 18.27315 -65.11159 10186 ft 297 kts 280°
2026-04-22 16:09 18.27654 -65.13385 10469 ft 320 kts 280°
2026-04-22 16:10 18.28024 -65.15785 10640 ft 343 kts 281°
2026-04-22 16:10 18.28481 -65.18331 10821 ft 363 kts 282°
2026-04-22 16:10 18.28939 -65.20646 11269 ft 370 kts 283°
2026-04-22 16:11 18.29059 -65.21292 11407 ft 371 kts 279°
2026-04-22 16:11 18.29324 -65.24008 11852 ft 374 kts 278°
2026-04-22 16:11 18.29770 -65.26669 11968 ft 378 kts 283°
2026-04-22 16:11 18.30404 -65.29435 11996 ft 397 kts 285°
2026-04-22 16:12 18.31082 -65.32168 11992 ft 404 kts 285°
2026-04-22 16:12 18.31776 -65.35041 11994 ft 405 kts 284°
2026-04-22 16:12 18.32425 -65.37935 11998 ft 405 kts 283°
2026-04-22 16:12 18.32981 -65.40616 11997 ft 406 kts 282°
2026-04-22 16:13 18.33554 -65.43533 11999 ft 406 kts 282°
2026-04-22 16:13 18.34107 -65.46443 11999 ft 406 kts 282°
2026-04-22 16:13 18.34658 -65.49359 12002 ft 406 kts 282°
2026-04-22 16:13 18.35211 -65.52271 12002 ft 406 kts 282°
2026-04-22 16:14 18.35771 -65.55180 11999 ft 406 kts 282°
2026-04-22 16:14 18.36337 -65.58090 11999 ft 406 kts 282°
2026-04-22 16:14 18.36903 -65.61002 11998 ft 406 kts 282°
2026-04-22 16:14 18.37244 -65.63907 11828 ft 404 kts 272°
2026-04-22 16:15 18.37192 -65.66863 11513 ft 401 kts 269°
2026-04-22 16:15 18.37097 -65.69763 11183 ft 387 kts 269°
2026-04-22 16:15 18.37003 -65.72516 11056 ft 367 kts 269°
2026-04-22 16:15 18.36915 -65.75142 10937 ft 350 kts 269°
2026-04-22 16:16 18.36835 -65.77649 10821 ft 335 kts 269°
2026-04-22 16:16 18.36760 -65.80010 10706 ft 323 kts 269°
2026-04-22 16:16 18.36685 -65.82333 10586 ft 311 kts 269°
2026-04-22 16:16 18.36617 -65.84466 10464 ft 302 kts 269°
2026-04-22 16:17 18.36554 -65.86495 10314 ft 295 kts 269°
2026-04-22 16:17 18.36487 -65.88653 10242 ft 295 kts 269°
2026-04-22 16:17 18.36417 -65.90815 10127 ft 295 kts 269°
2026-04-22 16:17 18.36349 -65.92949 10002 ft 295 kts 270°
2026-04-22 16:18 18.36283 -65.95132 9427 ft 299 kts 269°
2026-04-22 16:18 18.36221 -65.97154 9082 ft 296 kts 269°
2026-04-22 16:18 18.36189 -65.99313 8635 ft 292 kts 270°
2026-04-22 16:18 18.36192 -66.01450 7970 ft 292 kts 271°
2026-04-22 16:19 18.36207 -66.03576 7332 ft 290 kts 271°
2026-04-22 16:19 18.36224 -66.05683 6751 ft 288 kts 270°
2026-04-22 16:19 18.36235 -66.07143 6334 ft 287 kts 270°
2026-04-22 16:19 18.36245 -66.09140 5777 ft 284 kts 270°
2026-04-22 16:20 18.36252 -66.11197 5162 ft 282 kts 269°
2026-04-22 16:20 18.36257 -66.13258 4590 ft 279 kts 269°
2026-04-22 16:20 18.36261 -66.15280 4176 ft 269 kts 270°
2026-04-22 16:20 18.36298 -66.17178 4094 ft 248 kts 278°
2026-04-22 16:21 18.36900 -66.18773 3994 ft 227 kts 311°
2026-04-22 16:21 18.38113 -66.19752 3888 ft 219 kts 342°
2026-04-22 16:21 18.39562 -66.19979 3785 ft 205 kts
2026-04-22 16:21 18.40961 -66.19966 3706 ft 194 kts
2026-04-22 16:22 18.43151 -66.18859 3315 ft 183 kts 62°
2026-04-22 16:22 18.43402 -66.17552 2985 ft 190 kts 89°
2026-04-22 16:22 18.43393 -66.16174 2709 ft 185 kts 89°
2026-04-22 16:23 18.43379 -66.13631 2235 ft 161 kts 88°
2026-04-22 16:23 18.43376 -66.12510 2062 ft 146 kts 88°
2026-04-22 16:23 18.43375 -66.11463 1877 ft 142 kts 89°
2026-04-22 16:24 18.43373 -66.10441 1681 ft 136 kts 86°
2026-04-22 16:24 18.43370 -66.08457 1334 ft 134 kts 86°
2026-04-22 16:24 18.43368 -66.07474 1155 ft 135 kts 86°
2026-04-22 16:25 18.43366 -66.06485 992 ft 136 kts 86°
2026-04-22 16:25 18.43362 -66.04485 644 ft 133 kts 87°
2026-04-22 16:25 18.43360 -66.03511 469 ft 135 kts 82°
2026-04-22 16:26 18.43360 -66.02536 294 ft 132 kts 85°
2026-04-22 16:26 18.43358 -66.01530 100 ft 137 kts 87°
2026-04-22 16:26 18.43329 -66.00587 18 ft 127 kts 87°
2026-04-22 16:26 18.43356 -65.99826 17 ft 78 kts 89°
2026-04-22 16:27 18.43380 -65.99571 17 ft 11 kts 37°
2026-04-22 16:27 18.43450 -65.99560 17 ft 12 kts 322°
2026-04-22 16:27 18.43463 -65.99658 17 ft 15 kts 270°
2026-04-22 16:27 18.43463 -65.99775 17 ft 17 kts 271°
2026-04-22 16:28 18.43467 -65.99909 17 ft 20 kts 272°
2026-04-22 16:28 18.43464 -66.00050 17 ft 20 kts 270°
2026-04-22 16:28 18.43466 -66.00209 17 ft 23 kts 270°
2026-04-22 16:28 18.43484 -66.00351 18 ft 12 kts 306°
2026-04-22 16:29 18.43547 -66.00376 17 ft 6 kts
2026-04-22 16:29 18.43567 -66.00376 19 ft 0 kts